Home > Weather > Stockerau > Past weeks

Flag for Austria Weather for the Past 2 Weeks in Stockerau, Lower Austria, Austria

Now
37 °F

Passing clouds.


Feels Like: 37 °F
Forecast: 30 / 46 °F
Wind: 2 mph from North

Location: Tulln Airport

Current Time: Feb 13, 2016 at 10:58:33 AM

Latest Report: Feb 13, 2016 at 9:50 AM


Visibility: 15 mi

Pressure: 29.42 "Hg

Humidity: 81%

Dew point: 32 °F

Location of StockerauLocation

Historic Weather in Stockerau — Graph

°F

Stockerau Temperature Yesterday

Maximum temperature yesterday: 41 °F (at 12:50 PM)
Minimum temperature yesterday: 27 °F (at 4:50 AM)
Average temperature yesterday: 35 °F

High & Low Weather Summary for the Past Weeks

 TemperatureHumidityPressure
High57 °F (Feb 9, 3:50 PM)100% (Jan 29, 8:50 AM)30.42 "Hg (Jan 29, 8:50 AM)
Low27 °F (Feb 12, 4:50 AM)48% (Feb 9, 3:50 PM)29.30 "Hg (Feb 9, 8:50 PM)
Average44 °F77%29.93 "Hg
* Reported Jan 29 8:50 AM — Feb 13 8:50 AM, Stockerau, Weather by CustomWeather, © 2016

Note: Actual official high and low records may vary slightly from our data, if they occured in-between our weather recording intervals... More about our weather records

Advertising

Stockerau Weather History for the Previous 24 Hours

 ConditionsComfort  
Time TempWeatherWind HumidityBarometerVisibility
8:50 AM
Sat, Feb 13
34 °FPartly sunny.3 mph93%29.42 "Hg11 mi
7:50 AM34 °FOvercast.1 mph93%29.42 "Hg11 mi
6:50 AM34 °FPassing clouds.6 mph93%29.45 "Hg9 mi
5:50 AM34 °FPassing clouds.3 mph93%29.42 "Hg9 mi
9:50 PM
Fri, Feb 12
37 °FPassing clouds.6 mph81%29.47 "Hg12 mi
8:50 PM37 °FPassing clouds.5 mph81%29.50 "Hg16 mi
7:50 PM39 °FPassing clouds.6 mph81%29.50 "Hg19 mi
6:50 PM39 °FPassing clouds.7 mph75%29.53 "Hg19 mi
5:50 PM41 °FPassing clouds.9 mph70%29.56 "Hg22 mi
4:50 PM39 °FPassing clouds.9 mph75%29.59 "Hg25 mi
2:50 PM41 °FScattered clouds.8 mph70%29.62 "Hg25 mi
1:50 PM39 °FPartly sunny.3 mph75%29.65 "Hg25 mi
1:20 PM39 °FPartly sunny.3 mph70%29.65 "Hg25 mi
12:50 PM41 °FPartly sunny.2 mph66%29.68 "Hg25 mi
12:20 PM37 °FPartly sunny.2 mph75%29.68 "Hg31 mi
11:50 AM37 °FPartly sunny.3 mph75%29.71 "Hg31 mi
11:20 AM37 °FPartly sunny.5 mph75%29.71 "Hg31 mi
10:50 AM34 °FPartly sunny.2 mph81%29.71 "Hg31 mi
Weather by CustomWeather, © 2016

See weather overviewHow to use our weather pages